Regional Weather Roundup
Issued by NWS Newport/Morehead, NC

Current Version | Previous Version | Graphics & Text | Print | Product List | Glossary On
Versions: 1 2 3 4 5 6 7 8 9 10 11 12 13 14 15 16 17 18 19 20 21 22 23 24 25 26 27 28 29 30 31 32 33 34 35 36 37 38 39 40 41 42 43 44 45 46 47 48 49 50
000 ASUS42 KMHX 261714 RWRMHX WEATHER ROUNDUP FOR EASTERN NORTH CAROLINA NATIONAL WEATHER SERVICE NEWPORT/MOREHEAD CITY NC 100 PM EDT WED JUL 26 2017 NOTE: "FAIR" INDICATES FEW OR NO CLOUDS BELOW 12,000 FEET WITH NO SIGNIFICANT WEATHER AND/OR OBSTRUCTIONS TO VISIBILITY NCZ015>017-031-032-045>047-102-103-261800- NORTH COAST CITY SKY/WX TMP DP RH WIND PRES REMARKS EDENTON PTSUNNY 83 71 64 E8 30.18F ELIZABETH CITY MOSUNNY 82 69 64 E10 30.18F KITTY HAWK SUNNY 80 66 61 CALM 30.17F MANTEO SUNNY 79 67 66 E12 30.18F $$ NCZ045>047-081-094-103-104-261800- CENTRAL COAST CITY SKY/WX TMP DP RH WIND PRES REMARKS FRISCO SUNNY 84 68 58 NE7 30.15F $$ NCZ095-097-098-100-101-261800- SOUTHERN COAST CITY SKY/WX TMP DP RH WIND PRES REMARKS BEAUFORT PTSUNNY 85 72 65 NE8 30.14F CEDAR ISLAND NOT AVBL JACKSONVILLE PTSUNNY 86 71 60 NE9 30.14F PINEY ISLAND SUNNY N/A N/A N/A NE14 30.15F WILMINGTON CLOUDY 80 71 74 NE10 30.14S $$ NCZ011>013-027>030-043-044-078>080-089-090>093-098-261800- COASTAL PLAIN CITY SKY/WX TMP DP RH WIND PRES REMARKS AHOSKIE N/A 80 67 65 CALM 30.18F CLINTON SUNNY 87 70 57 E7 30.16F ELIZABETHTOWN NOT AVBL GOLDSBORO MOSUNNY 87 67 51 E7 30.15F GREENVILLE PTSUNNY 82 68 61 CALM 30.19S HAVELOCK MOSUNNY 85 70 60 NE17 30.16F KENANSVILLE MOSUNNY 84 68 58 E5 30.17F KINSTON MOSUNNY 88 64 45 NE9 30.18S NEW BERN CLOUDY 84 67 56 NE10 30.17F RICHLANDS CLOUDY 84 73 69 NE9 30.16F ROCKY MOUNT MOSUNNY 84 70 62 VRB5 30.18F WASHINGTON MOSUNNY 84 69 60 E7 30.17F WHITEVILLE PTSUNNY 83 73 69 E9 30.15R $$ AMZ130-135-150-152-154-156-158-170-250-252-270-ANZ085-086-088-633-658-670-261800- MARINE OBSERVATIONS STATION/POSITION TIME TEMP WIND PRES WAVE SWELL AIR SEA DIR/SP/G HT/PER HT/PER (UTC) (F) (DEG/KT/KT) (MB) (FT/S) (FT/S) CHESAPEAKE LIGHT NOT AVBL 64 E VA BEACH 1650 75 78 50/ 12/ 14 1022.4 3/ 6 2/ 6 DUCK 1648 75 76 50/ 10/ 11 1021.8 2 E DUCK 1700 75 N/A 3/ 6 OREGON INLET 1636 77 73 40/ 8/ 12 1021.9 13E OREGON INLT 1648 78 N/A 4/ 6 3/ 6 HATTERAS CG 1648 80 78 60/ 8/ 15 1020.9 DIAMOND BUOY 1650 80 83 40/ 14/ 16 1020.4 3/ 5 2/ 7 CAPE LOOKOUT 1700 79 30/ 15/ 18 1020.4 BEAUFORT LAB 1648 82 79 80/ 9/ 14 1020.1 30 SE NEW RVR IN NOT AVBL 30 SE NEW RVR IN 1643 84 N/A 4/ 5 27 SE WRIGHTSVLE NOT AVBL 5 SE WRIGHTSVLE 1608 81 81 60/ 14/ 21 1020.1 225 S CAPE HAT 1650 78 83 240/ 2/ 4 1020.4 3/ 5 2/ 5 41 SE CHARLESTON 1650 80 83 250/ 10/ 12 1019.5 3/ 4 2/10 $$

USA.gov is the U.S. government's official web portal to all federal, state and local government web resources and services.